Time,TemperatureF,DewpointF,PressureIn,WindDirection,WindDirectionDegrees,WindSpeedMPH,WindSpeedGustMPH,Humidity,HourlyPrecipIn,Conditions,Clouds,dailyrainin,SoftwareType,DateUTC
2013-03-07 00:01:00,38.3,16.1,29.74,SE,146,0.0,0.0,40,0.00,,---,0.00,VWS V12.07,2013-03-07 07:01:00,
2013-03-07 00:16:00,34.7,16.0,29.77,SSE,149,4.0,6.0,46,0.00,,---,0.00,VWS V12.07,2013-03-07 07:16:00,
2013-03-07 00:31:00,34.5,15.9,29.77,SSE,155,5.0,5.0,46,0.00,,---,0.00,VWS V12.07,2013-03-07 07:31:00,
2013-03-07 00:46:00,35.7,15.9,29.78,SSE,164,6.0,7.0,44,0.00,,---,0.00,VWS V12.07,2013-03-07 07:46:00,
2013-03-07 01:01:00,35.4,15.7,29.78,SSE,165,4.0,4.0,44,0.00,,---,0.00,VWS V12.07,2013-03-07 08:01:00,
2013-03-07 01:16:00,39.4,15.9,29.75,SSW,200,12.0,13.0,38,0.00,,---,0.00,VWS V12.07,2013-03-07 08:16:00,
2013-03-07 01:31:00,44.3,17.7,29.70,SW,236,10.0,14.0,34,0.00,,---,0.00,VWS V12.07,2013-03-07 08:31:00,
2013-03-07 01:46:00,43.8,19.2,29.70,SSW,211,10.0,17.0,37,0.00,,---,0.00,VWS V12.07,2013-03-07 08:46:00,
2013-03-07 02:01:00,43.4,17.6,29.69,SE,125,0.0,2.0,35,0.00,,---,0.00,VWS V12.07,2013-03-07 09:01:00,
2013-03-07 02:16:00,38.6,15.8,29.73,ESE,102,4.0,7.0,39,0.00,,---,0.00,VWS V12.07,2013-03-07 09:16:00,
2013-03-07 02:31:00,36.8,16.4,29.74,ESE,109,6.0,6.0,43,0.00,,---,0.00,VWS V12.07,2013-03-07 09:31:00,
2013-03-07 02:46:00,37.5,17.0,29.74,SE,146,0.0,9.0,43,0.00,,---,0.00,VWS V12.07,2013-03-07 09:46:00,
2013-03-07 03:01:00,36.2,16.4,29.74,SE,146,0.0,0.0,44,0.00,,---,0.00,VWS V12.07,2013-03-07 10:01:00,
2013-03-07 03:17:00,36.0,17.2,29.75,South,191,0.0,9.0,46,0.00,,---,0.00,VWS V12.07,2013-03-07 10:17:00,
2013-03-07 03:31:00,34.1,17.0,29.77,South,191,0.0,0.0,49,0.00,,---,0.00,VWS V12.07,2013-03-07 10:31:00,
2013-03-07 03:46:00,37.5,17.0,29.74,SSW,205,0.0,7.0,43,0.00,,---,0.00,VWS V12.07,2013-03-07 10:46:00,
2013-03-07 04:01:00,36.4,16.6,29.74,SSW,194,0.0,0.0,44,0.00,,---,0.00,VWS V12.07,2013-03-07 11:01:00,
2013-03-07 04:16:00,34.0,16.4,29.79,SSE,161,0.0,4.0,48,0.00,,---,0.00,VWS V12.07,2013-03-07 11:16:00,
2013-03-07 04:31:00,34.4,16.3,29.79,SE,136,0.0,0.0,47,0.00,,---,0.00,VWS V12.07,2013-03-07 11:31:00,
2013-03-07 04:46:00,35.2,16.0,29.80,SE,136,0.0,10.0,45,0.00,,---,0.00,VWS V12.07,2013-03-07 11:46:00,
2013-03-07 05:01:00,33.5,15.4,29.81,SE,138,3.0,3.0,47,0.00,,---,0.00,VWS V12.07,2013-03-07 12:01:00,
2013-03-07 05:16:00,32.4,15.4,29.86,SE,138,0.0,5.0,49,0.00,,---,0.00,VWS V12.07,2013-03-07 12:16:00,
2013-03-07 05:31:00,33.4,15.4,29.86,SE,138,3.0,3.0,47,0.00,,---,0.00,VWS V12.07,2013-03-07 12:31:00,
2013-03-07 05:46:00,31.6,15.6,29.88,SE,138,4.0,6.0,51,0.00,,---,0.00,VWS V12.07,2013-03-07 12:46:00,
2013-03-07 06:01:00,31.8,15.3,29.89,SE,141,4.0,4.0,50,0.00,,---,0.00,VWS V12.07,2013-03-07 13:01:00,
2013-03-07 06:16:00,30.8,15.3,29.91,SSE,157,4.0,6.0,52,0.00,,---,0.00,VWS V12.07,2013-03-07 13:16:00,
2013-03-07 06:46:00,31.2,15.2,29.91,South,173,0.0,7.0,51,0.00,,---,0.00,VWS V12.07,2013-03-07 13:46:00,
2013-03-07 07:01:00,32.0,15.5,29.90,SSE,165,0.0,0.0,50,0.00,,---,0.00,VWS V12.07,2013-03-07 14:01:00,
2013-03-07 07:16:00,33.7,16.6,29.93,South,190,0.0,6.0,49,0.00,,---,0.00,VWS V12.07,2013-03-07 14:16:00,
2013-03-07 07:32:00,37.5,17.6,29.90,SSW,194,0.0,0.0,44,0.00,,---,0.00,VWS V12.07,2013-03-07 14:32:00,
2013-03-07 07:46:00,40.9,17.3,29.88,SE,129,0.0,4.0,38,0.00,,---,0.00,VWS V12.07,2013-03-07 14:46:00,
2013-03-07 08:01:00,41.4,17.1,29.88,SE,130,0.0,0.0,37,0.00,,---,0.00,VWS V12.07,2013-03-07 15:01:00,
2013-03-07 08:17:00,42.5,16.1,29.86,SE,144,0.0,6.0,34,0.00,,---,0.00,VWS V12.07,2013-03-07 15:17:00,
2013-03-07 08:31:00,43.9,17.4,29.85,SE,139,2.0,2.0,34,0.00,,---,0.00,VWS V12.07,2013-03-07 15:31:00,
2013-03-07 08:46:00,45.3,17.2,29.85,SE,128,0.0,3.0,32,0.00,,---,0.00,VWS V12.07,2013-03-07 15:46:00,
2013-03-07 09:01:00,45.7,17.5,29.84,WNW,290,0.0,0.0,32,0.00,,---,0.00,VWS V12.07,2013-03-07 16:01:00,
2013-03-07 09:16:00,46.0,17.1,29.88,NNE,28,2.0,7.0,31,0.00,,---,0.00,VWS V12.07,2013-03-07 16:16:00,
2013-03-07 09:31:00,45.6,16.0,29.88,NNE,26,8.0,8.0,30,0.00,,---,0.00,VWS V12.07,2013-03-07 16:31:00,
2013-03-07 09:46:00,47.0,16.4,29.85,NE,36,0.0,10.0,29,0.00,,---,0.00,VWS V12.07,2013-03-07 16:46:00,
2013-03-07 10:01:00,47.5,15.2,29.85,NNE,13,7.0,7.0,27,0.00,,---,0.00,VWS V12.07,2013-03-07 17:01:00,
2013-03-07 10:16:00,47.9,16.4,29.85,NE,48,3.0,13.0,28,0.00,,---,0.00,VWS V12.07,2013-03-07 17:16:00,
2013-03-07 10:31:00,49.4,15.1,29.85,NNE,17,2.0,3.0,25,0.00,,---,0.00,VWS V12.07,2013-03-07 17:31:00,
2013-03-07 10:46:00,50.0,13.7,29.83,NE,52,0.0,7.0,23,0.00,,---,0.00,VWS V12.07,2013-03-07 17:46:00,
2013-03-07 11:02:00,50.3,13.9,29.83,ESE,104,5.0,5.0,23,0.00,,---,0.00,VWS V12.07,2013-03-07 18:02:00,
2013-03-07 11:16:00,51.4,9.3,29.79,SW,232,9.0,20.0,18,0.00,,---,0.00,VWS V12.07,2013-03-07 18:16:00,
2013-03-07 11:31:00,51.6,8.2,29.80,SSE,168,2.0,12.0,17,0.00,,---,0.00,VWS V12.07,2013-03-07 18:31:00,
2013-03-07 11:46:00,51.9,7.1,29.80,SSW,200,18.0,25.0,16,0.00,,---,0.00,VWS V12.07,2013-03-07 18:46:00,
2013-03-07 12:01:00,51.9,9.7,29.79,SW,227,9.0,9.0,18,0.00,,---,0.00,VWS V12.07,2013-03-07 19:01:00,
2013-03-07 12:16:00,52.0,7.2,29.82,SSW,198,3.0,21.0,16,0.00,,---,0.00,VWS V12.07,2013-03-07 19:16:00,
2013-03-07 12:32:00,52.3,8.8,29.82,South,187,7.0,12.0,17,0.00,,---,0.00,VWS V12.07,2013-03-07 19:32:00,
2013-03-07 12:46:00,52.9,10.6,29.80,South,178,14.0,17.0,18,0.00,,---,0.00,VWS V12.07,2013-03-07 19:46:00,
2013-03-07 13:01:00,52.8,10.5,29.79,SW,225,7.0,10.0,18,0.00,,---,0.00,VWS V12.07,2013-03-07 20:01:00,
2013-03-07 13:16:00,52.3,13.5,29.72,SW,236,9.0,20.0,21,0.00,,---,0.00,VWS V12.07,2013-03-07 20:16:00,
2013-03-07 13:31:00,51.6,13.0,29.71,SW,230,7.0,11.0,21,0.00,,---,0.00,VWS V12.07,2013-03-07 20:31:00,
2013-03-07 13:46:00,51.8,10.9,29.70,SW,222,7.0,21.0,19,0.00,,---,0.00,VWS V12.07,2013-03-07 20:46:00,
2013-03-07 14:01:00,52.1,14.4,29.70,SW,217,3.0,10.0,22,0.00,,---,0.00,VWS V12.07,2013-03-07 21:01:00,
2013-03-07 14:18:00,51.8,12.0,29.76,SW,221,10.0,17.0,20,0.00,,---,0.00,VWS V12.07,2013-03-07 21:18:00,
2013-03-07 14:31:00,51.8,15.2,29.76,WSW,250,1.0,6.0,23,0.00,,---,0.00,VWS V12.07,2013-03-07 21:31:00,
2013-03-07 14:46:00,52.7,13.9,29.76,SW,214,5.0,17.0,21,0.00,,---,0.00,VWS V12.07,2013-03-07 21:46:00,
2013-03-07 15:02:00,52.2,14.5,29.76,WSW,242,2.0,13.0,22,0.00,,---,0.00,VWS V12.07,2013-03-07 22:02:00,
2013-03-07 15:16:00,52.2,14.5,29.76,SW,226,10.0,16.0,22,0.00,,---,0.00,VWS V12.07,2013-03-07 22:16:00,
2013-03-07 15:31:00,52.0,15.4,29.76,WSW,244,3.0,9.0,23,0.00,,---,0.00,VWS V12.07,2013-03-07 22:31:00,
2013-03-07 15:46:00,52.6,15.9,29.75,WSW,241,7.0,17.0,23,0.00,,---,0.00,VWS V12.07,2013-03-07 22:46:00,
2013-03-07 16:01:00,52.5,17.7,29.75,SW,215,9.0,9.0,25,0.00,,---,0.00,VWS V12.07,2013-03-07 23:01:00,
2013-03-07 16:16:00,52.4,15.7,29.77,SW,236,1.0,13.0,23,0.00,,---,0.00,VWS V12.07,2013-03-07 23:16:00,
2013-03-07 16:31:00,51.9,17.2,29.76,WNW,282,6.0,15.0,25,0.00,,---,0.00,VWS V12.07,2013-03-07 23:31:00,
2013-03-07 16:46:00,50.6,17.0,29.77,WSW,250,2.0,16.0,26,0.00,,---,0.00,VWS V12.07,2013-03-07 23:46:00,
2013-03-07 17:01:00,50.1,16.6,29.78,SW,222,2.0,3.0,26,0.00,,---,0.00,VWS V12.07,2013-03-08 00:01:00,
2013-03-07 17:16:00,49.5,16.9,29.80,WSW,240,2.0,13.0,27,0.00,,---,0.00,VWS V12.07,2013-03-08 00:16:00,
2013-03-07 17:31:00,48.6,17.8,29.81,WSW,246,3.0,3.0,29,0.00,,---,0.00,VWS V12.07,2013-03-08 00:31:00,
2013-03-07 17:46:00,47.5,17.6,29.81,SW,221,4.0,10.0,30,0.00,,---,0.00,VWS V12.07,2013-03-08 00:46:00,
2013-03-07 18:01:00,46.4,15.9,29.83,South,173,0.0,0.0,29,0.00,,---,0.00,VWS V12.07,2013-03-08 01:01:00,
2013-03-07 18:16:00,42.6,17.5,29.87,South,173,3.0,3.0,36,0.00,,---,0.00,VWS V12.07,2013-03-08 01:16:00,
2013-03-07 18:31:00,39.5,15.4,29.88,SSW,194,4.0,5.0,37,0.00,,---,0.00,VWS V12.07,2013-03-08 01:31:00,
2013-03-07 18:46:00,40.4,16.2,29.89,South,184,0.0,9.0,37,0.00,,---,0.00,VWS V12.07,2013-03-08 01:46:00,
2013-03-07 19:01:00,41.0,16.1,29.89,South,183,5.0,7.0,36,0.00,,---,0.00,VWS V12.07,2013-03-08 02:01:00,
2013-03-07 19:16:00,40.3,16.1,29.81,South,182,0.0,7.0,37,0.00,,---,0.00,VWS V12.07,2013-03-08 02:16:00,
2013-03-07 19:32:00,39.2,15.1,29.83,South,186,0.0,0.0,37,0.00,,---,0.00,VWS V12.07,2013-03-08 02:32:00,
2013-03-07 20:02:00,37.6,15.5,29.85,South,186,4.0,5.0,40,0.00,,---,0.00,VWS V12.07,2013-03-08 03:02:00,
2013-03-07 20:16:00,37.5,16.0,29.80,South,184,0.0,6.0,41,0.00,,---,0.00,VWS V12.07,2013-03-08 03:16:00,
2013-03-07 20:31:00,37.9,15.8,29.80,South,188,5.0,5.0,40,0.00,,---,0.00,VWS V12.07,2013-03-08 03:31:00,
2013-03-07 20:46:00,37.2,16.2,29.81,South,182,5.0,7.0,42,0.00,,---,0.00,VWS V12.07,2013-03-08 03:46:00,
2013-03-07 21:02:00,36.5,15.6,29.82,South,180,0.0,0.0,42,0.00,,---,0.00,VWS V12.07,2013-03-08 04:02:00,
2013-03-07 21:16:00,35.4,16.2,29.80,South,181,3.0,6.0,45,0.00,,---,0.00,VWS V12.07,2013-03-08 04:16:00,
2013-03-07 21:31:00,35.5,16.3,29.80,South,177,6.0,7.0,45,0.00,,---,0.00,VWS V12.07,2013-03-08 04:31:00,
2013-03-07 21:46:00,34.4,16.3,29.81,South,173,5.0,7.0,47,0.00,,---,0.00,VWS V12.07,2013-03-08 04:46:00,
2013-03-07 22:01:00,35.1,15.9,29.81,SSE,163,4.0,5.0,45,0.00,,---,0.00,VWS V12.07,2013-03-08 05:01:00,
2013-03-07 22:16:00,36.4,16.6,29.77,SSW,194,4.0,7.0,44,0.00,,---,0.00,VWS V12.07,2013-03-08 05:16:00,
2013-03-07 22:31:00,34.7,16.5,29.79,South,180,0.0,1.0,47,0.00,,---,0.00,VWS V12.07,2013-03-08 05:31:00,
2013-03-07 22:46:00,35.9,16.1,29.77,SSW,194,3.0,7.0,44,0.00,,---,0.00,VWS V12.07,2013-03-08 05:46:00,
2013-03-07 23:01:00,37.4,16.4,29.77,South,184,5.0,6.0,42,0.00,,---,0.00,VWS V12.07,2013-03-08 06:01:00,
2013-03-07 23:16:00,37.5,16.0,29.74,SSW,198,7.0,9.0,41,0.00,,---,0.00,VWS V12.07,2013-03-08 06:16:00,
2013-03-07 23:31:00,38.0,15.8,29.74,SW,221,4.0,7.0,40,0.00,,---,0.00,VWS V12.07,2013-03-08 06:31:00,
2013-03-07 23:46:00,37.8,15.7,29.74,SW,215,4.0,7.0,40,0.00,,---,0.00,VWS V12.07,2013-03-08 06:46:00,